This demonstration page uses our WeatherBlox Daily Observations layout. Learn more.

Left ArrowRight Arrow

40.92501, -98.34201

Hourly Observations for September 14, 2022

Temp ( °F °C ) Dew Point ( °F °C ) Humidity (%) Winds ( mph kmh ) Pressure ( in mb ) Visibility ( mi km ) Precip ( " mm )
12:53 am 00:53 Clear 70 21.1 55 12.8 59 59 S 12 19 29.85 1011 10 16 0.00 0.00
1:53 am 01:53 Clear 69 20.6 54 12.2 59 59 S 12 19 29.86 1011 10 16 0.00 0.00
2:53 am 02:53 Clear 68 20 54 12.2 61 61 S 12 19 29.86 1011 10 16 0.00 0.00
3:53 am 03:53 Clear 66 18.9 55 12.8 68 68 S 10 17 29.87 1012 10 16 0.00 0.00
4:53 am 04:53 Clear 65 18.3 55 12.8 70 70 S 12 19 29.87 1012 10 16 0.00 0.00
5:53 am 05:53 Clear 64 17.8 54 12.2 70 70 SSE 9 15 29.88 1012 10 16 0.00 0.00
6:53 am 06:53 Clear 65 18.3 54 12.2 68 68 S 13 20 29.89 1012 10 16 0.00 0.00
7:53 am 07:53 Sunny 65 18.3 54 12.2 68 68 SSE 12 19 29.91 1013 10 16 0.00 0.00
8:53 am 08:53 Sunny 68 20 55 12.8 63 63 S 13 20 29.92 1013 10 16 0.00 0.00
9:53 am 09:53 Sunny 72 22.2 58 14.4 61 61 SSE 14 22 29.92 1013 10 16 0.00 0.00
10:53 am 10:53 Sunny 77 25 60 15.6 56 56 SSE 13 20 29.92 1013 10 16 0.00 0.00
11:53 am 11:53 Sunny 79 26.1 61 16.1 54 54 SSE 13 20 29.92 1013 10 16 0.00 0.00
12:53 pm 12:53 Sunny 84 28.9 62 16.7 48 48 SE 17 28 29.91 1013 10 16 0.00 0.00
1:53 pm 13:53 Sunny 86 30 62 16.7 45 45 SSE 15 24 29.89 1012 10 16 0.00 0.00
2:53 pm 14:53 Sunny 88 31.1 63 17.2 43 43 SE 16 26 29.88 1012 10 16 0.00 0.00
3:53 pm 15:53 Sunny 86 30 61 16.1 43 43 SSE 16 26 29.88 1012 10 16 0.00 0.00
4:53 pm 16:53 Sunny 85 29.4 62 16.7 46 46 SE 13 20 29.87 1011 10 16 0.00 0.00
5:53 pm 17:53 Sunny 84 28.9 63 17.2 49 49 SE 12 19 29.86 1011 10 16 0.00 0.00
6:53 pm 18:53 Sunny 84 28.9 61 16.1 46 46 SE 13 20 29.85 1011 10 16 0.00 0.00
7:53 pm 19:53 Clear 81 27.2 60 15.6 49 49 SE 14 22 29.87 1011 10 16 0.00 0.00
8:53 pm 20:53 Clear 78 25.6 60 15.6 54 54 SSE 14 22 29.88 1012 10 16 0.00 0.00
9:53 pm 21:53 Clear 77 25 58 14.4 52 52 SSE 14 22 29.90 1012 10 16 0.00 0.00
10:53 pm 22:53 Clear 76 24.4 58 14.4 54 54 SSE 15 24 29.91 1013 10 16 0.00 0.00
11:53 pm 23:53 Clear 76 24.4 59 15 56 56 S 17 28 29.91 1013 10 16 0.00 0.00

Powered by AerisWeather